START_TIME,STEP,MOV.,P1,t_acc.,E44,t_acc.,A3,t_acc.,P10,t_acc.
1979-03-06 09:00:20.800 ,0,0,2.,1.2,0.,1.2,0.,1.2,0.,1.2
1979-03-06 09:00:22.000 ,0,0,5.,1.2,0.,1.2,0.,1.2,0.,1.2
1979-03-06 09:00:23.200 ,0,0,1.,1.2,0.,1.2,0.,1.2,0.,1.2
1979-03-06 09:00:24.400 ,0,0,3.,1.2,0.,1.2,0.,1.2,0.,1.2
1979-03-06 09:00:25.600 ,0,0,5.,1.2,0.,1.2,0.,1.2,0.,1.2
1979-03-06 09:00:26.800 ,0,0,1.,1.2,0.,1.2,0.,1.2,0.,1.2
1979-03-06 09:00:28.000 ,0,0,2.,1.2,0.,1.2,0.,1.2,0.,1.2
1979-03-06 09:00:29.200 ,0,0,1.,1.2,0.,1.2,0.,1.2,0.,1.2
1979-03-06 09:00:30.400 ,0,0,3.,1.2,0.,1.2,0.,1.2,0.,1.2
1979-03-06 09:00:31.600 ,0,0,1.,1.2,0.,1.2,0.,1.2,0.,1.2
1979-03-06 09:00:32.800 ,0,0,2.,1.2,0.,1.2,0.,1.2,0.,1.2
1979-03-06 09:00:34.000 ,0,0,2.,1.2,0.,1.2,0.,1.2,0.,1.2
1979-03-06 09:00:35.200 ,0,0,2.,1.2,0.,1.2,0.,1.2,0.,1.2
1979-03-06 09:00:36.400 ,0,0,2.,1.2,0.,1.2,0.,1.2,0.,1.2
1979-03-06 09:00:37.600 ,0,0,0.,1.2,0.,1.2,0.,1.2,0.,1.2
1979-03-06 09:00:38.800 ,0,0,3.,1.2,0.,1.2,0.,1.2,0.,1.2
1979-03-06 09:00:40.000 ,0,0,1.,1.2,0.,1.2,0.,1.2,0.,1.2
1979-03-06 09:00:41.200 ,0,0,1.,1.2,0.,1.2,0.,1.2,0.,1.2
1979-03-06 09:00:42.400 ,0,0,1.,1.2,0.,1.2,0.,1.2,0.,1.2
1979-03-06 09:00:43.600 ,0,0,3.,1.2,0.,1.2,0.,1.2,0.,1.2
1979-03-06 09:00:44.800 ,1,0,2.,1.2,0.,1.2,0.,1.2,0.,1.2
1979-03-06 09:00:46.000 ,1,0,0.,1.2,0.,1.2,0.,1.2,0.,1.2
1979-03-06 09:00:47.200 ,1,0,5.,1.2,0.,1.2,0.,1.2,0.,1.2
1979-03-06 09:00:48.400 ,1,0,1.,1.2,0.,1.2,0.,1.2,0.,1.2
1979-03-06 09:00:49.600 ,1,0,2.,1.2,0.,1.2,1.,1.2,0.,1.2
1979-03-06 09:00:50.800 ,1,0,1.,1.2,0.,1.2,0.,1.2,0.,1.2
1979-03-06 09:00:52.000 ,1,0,2.,1.2,0.,1.2,0.,1.2,0.,1.2
1979-03-06 09:00:53.200 ,1,0,1.,1.2,0.,1.2,0.,1.2,0.,1.2
1979-03-06 09:00:54.400 ,1,0,2.,1.2,0.,1.2,0.,1.2,0.,1.2
1979-03-06 09:00:55.600 ,1,0,2.,1.2,0.,1.2,0.,1.2,0.,1.2
1979-03-06 09:00:56.800 ,1,0,1.,1.2,0.,1.2,0.,1.2,0.,1.2
1979-03-06 09:00:58.000 ,1,0,5.,1.2,0.,1.2,0.,1.2,0.,1.2
1979-03-06 09:00:59.200 ,1,0,2.,1.2,0.,1.2,0.,1.2,0.,1.2
1979-03-06 09:01:00.400 ,1,0,5.,1.2,0.,1.2,0.,1.2,0.,1.2
1979-03-06 09:01:01.600 ,1,0,2.,1.2,0.,1.2,0.,1.2,0.,1.2
1979-03-06 09:01:02.800 ,1,0,4.,1.2,0.,1.2,0.,1.2,0.,1.2
1979-03-06 09:01:04.000 ,1,0,3.,1.2,0.,1.2,1.,1.2,1.,1.2
1979-03-06 09:01:05.200 ,1,0,3.,1.2,0.,1.2,1.,1.2,0.,1.2
1979-03-06 09:01:06.400 ,1,0,5.,1.2,0.,1.2,0.,1.2,0.,1.2
1979-03-06 09:01:07.600 ,1,0,5.,1.2,0.,1.2,0.,1.2,0.,1.2
1979-03-06 09:01:08.800 ,2,0,2.,1.2,0.,1.2,0.,1.2,0.,1.2
1979-03-06 09:01:10.000 ,2,0,3.,1.2,0.,1.2,0.,1.2,1.,1.2
1979-03-06 09:01:11.200 ,2,0,0.,1.2,0.,1.2,0.,1.2,0.,1.2
1979-03-06 09:01:12.400 ,2,0,2.,1.2,0.,1.2,0.,1.2,0.,1.2
1979-03-06 09:01:13.600 ,2,0,2.,1.2,0.,1.2,0.,1.2,0.,1.2
1979-03-06 09:01:14.800 ,2,0,2.,1.2,0.,1.2,0.,1.2,1.,1.2
1979-03-06 09:01:16.000 ,2,0,5.,1.2,0.,1.2,0.,1.2,0.,1.2
1979-03-06 09:01:17.200 ,2,0,1.,1.2,0.,1.2,0.,1.2,0.,1.2
1979-03-06 09:01:18.400 ,2,0,3.,1.2,0.,1.2,0.,1.2,0.,1.2
1979-03-06 09:01:19.600 ,2,0,2.,1.2,0.,1.2,0.,1.2,0.,1.2
1979-03-06 09:01:20.800 ,2,0,2.,1.2,0.,1.2,0.,1.2,0.,1.2
1979-03-06 09:01:22.000 ,2,0,4.,1.2,0.,1.2,0.,1.2,0.,1.2
1979-03-06 09:01:23.200 ,2,0,2.,1.2,0.,1.2,0.,1.2,0.,1.2
1979-03-06 09:01:24.400 ,2,0,3.,1.2,0.,1.2,0.,1.2,0.,1.2
1979-03-06 09:01:25.600 ,2,0,4.,1.2,0.,1.2,0.,1.2,0.,1.2
1979-03-06 09:01:26.800 ,2,0,5.,1.2,0.,1.2,0.,1.2,0.,1.2
1979-03-06 09:01:28.000 ,2,0,4.,1.2,0.,1.2,0.,1.2,1.,1.2
1979-03-06 09:01:29.200 ,2,0,1.,1.2,0.,1.2,0.,1.2,0.,1.2
1979-03-06 09:01:30.400 ,2,0,5.,1.2,0.,1.2,0.,1.2,1.,1.2
1979-03-06 09:01:31.600 ,2,0,1.,1.2,0.,1.2,0.,1.2,0.,1.2
1979-03-06 09:01:32.800 ,3,0,5.,1.2,0.,1.2,0.,1.2,0.,1.2
1979-03-06 09:01:34.000 ,3,0,1.,1.2,0.,1.2,1.,1.2,0.,1.2
1979-03-06 09:01:35.200 ,3,0,1.,1.2,0.,1.2,0.,1.2,0.,1.2
1979-03-06 09:01:36.400 ,3,0,0.,1.2,0.,1.2,0.,1.2,2.,1.2
1979-03-06 09:01:37.600 ,3,0,1.,1.2,0.,1.2,0.,1.2,0.,1.2
1979-03-06 09:01:38.800 ,3,0,3.,1.2,0.,1.2,0.,1.2,0.,1.2
1979-03-06 09:01:40.000 ,3,0,2.,1.2,0.,1.2,0.,1.2,0.,1.2
1979-03-06 09:01:41.200 ,3,0,5.,1.2,0.,1.2,0.,1.2,0.,1.2
1979-03-06 09:01:42.400 ,3,0,3.,1.2,0.,1.2,0.,1.2,0.,1.2
1979-03-06 09:01:43.600 ,3,0,3.,1.2,0.,1.2,0.,1.2,0.,1.2
1979-03-06 09:01:44.800 ,3,0,1.,1.2,0.,1.2,0.,1.2,0.,1.2
1979-03-06 09:01:46.000 ,3,0,1.,1.2,0.,1.2,0.,1.2,0.,1.2
1979-03-06 09:01:47.200 ,3,0,4.,1.2,0.,1.2,0.,1.2,0.,1.2
1979-03-06 09:01:48.400 ,3,0,2.,1.2,0.,1.2,0.,1.2,1.,1.2
1979-03-06 09:01:49.600 ,3,0,2.,1.2,0.,1.2,0.,1.2,0.,1.2
1979-03-06 09:01:50.800 ,3,0,2.,1.2,0.,1.2,0.,1.2,0.,1.2
1979-03-06 09:01:52.000 ,3,0,3.,1.2,0.,1.2,0.,1.2,0.,1.2
1979-03-06 09:01:53.200 ,3,0,1.,1.2,0.,1.2,0.,1.2,0.,1.2
1979-03-06 09:01:54.400 ,3,0,1.,1.2,0.,1.2,0.,1.2,0.,1.2
1979-03-06 09:01:55.600 ,3,0,0.,1.2,0.,1.2,0.,1.2,1.,1.2
1979-03-06 09:01:56.800 ,4,0,1.,1.2,0.,1.2,0.,1.2,0.,1.2
1979-03-06 09:01:58.000 ,4,0,4.,1.2,0.,1.2,0.,1.2,0.,1.2
1979-03-06 09:01:59.200 ,4,0,1.,1.2,0.,1.2,0.,1.2,0.,1.2
1979-03-06 09:02:00.400 ,4,0,2.,1.2,0.,1.2,0.,1.2,0.,1.2
1979-03-06 09:02:01.600 ,4,0,1.,1.2,0.,1.2,0.,1.2,2.,1.2
1979-03-06 09:02:02.800 ,4,0,2.,1.2,0.,1.2,0.,1.2,0.,1.2
1979-03-06 09:02:04.000 ,4,0,1.,1.2,0.,1.2,0.,1.2,1.,1.2
1979-03-06 09:02:05.200 ,4,0,2.,1.2,0.,1.2,0.,1.2,0.,1.2
1979-03-06 09:02:06.400 ,4,0,2.,1.2,0.,1.2,0.,1.2,0.,1.2
1979-03-06 09:02:07.600 ,4,0,3.,1.2,0.,1.2,0.,1.2,0.,1.2
1979-03-06 09:02:08.800 ,4,0,4.,1.2,0.,1.2,0.,1.2,0.,1.2
1979-03-06 09:02:10.000 ,4,0,1.,1.2,0.,1.2,0.,1.2,0.,1.2
1979-03-06 09:02:11.200 ,4,0,1.,1.2,0.,1.2,0.,1.2,0.,1.2
1979-03-06 09:02:12.400 ,4,0,4.,1.2,0.,1.2,0.,1.2,0.,1.2
1979-03-06 09:02:13.600 ,4,0,2.,1.2,0.,1.2,0.,1.2,0.,1.2
1979-03-06 09:02:14.800 ,4,0,2.,1.2,0.,1.2,0.,1.2,0.,1.2
1979-03-06 09:02:16.000 ,4,0,0.,1.2,0.,1.2,0.,1.2,0.,1.2
1979-03-06 09:02:17.200 ,4,0,4.,1.2,0.,1.2,0.,1.2,0.,1.2
1979-03-06 09:02:18.400 ,4,0,3.,1.2,0.,1.2,0.,1.2,0.,1.2
1979-03-06 09:02:19.600 ,4,0,2.,1.2,0.,1.2,0.,1.2,0.,1.2
1979-03-06 09:02:20.800 ,5,0,2.,1.2,0.,1.2,0.,1.2,0.,1.2
1979-03-06 09:02:22.000 ,5,0,6.,1.2,0.,1.2,0.,1.2,0.,1.2
1979-03-06 09:02:23.200 ,5,0,3.,1.2,0.,1.2,0.,1.2,0.,1.2
1979-03-06 09:02:24.400 ,5,0,2.,1.2,0.,1.2,0.,1.2,0.,1.2
1979-03-06 09:02:25.600 ,5,0,0.,1.2,0.,1.2,0.,1.2,0.,1.2
1979-03-06 09:02:26.800 ,5,0,5.,1.2,0.,1.2,0.,1.2,1.,1.2
1979-03-06 09:02:28.000 ,5,0,3.,1.2,0.,1.2,0.,1.2,0.,1.2
1979-03-06 09:02:29.200 ,5,0,1.,1.2,0.,1.2,0.,1.2,0.,1.2
1979-03-06 09:02:30.400 ,5,0,7.,1.2,0.,1.2,0.,1.2,0.,1.2
1979-03-06 09:02:31.600 ,5,0,2.,1.2,0.,1.2,0.,1.2,0.,1.2
1979-03-06 09:02:32.800 ,5,0,5.,1.2,0.,1.2,0.,1.2,0.,1.2
1979-03-06 09:02:34.000 ,5,0,6.,1.2,0.,1.2,0.,1.2,0.,1.2
1979-03-06 09:02:35.200 ,5,0,7.,1.2,0.,1.2,0.,1.2,1.,1.2
1979-03-06 09:02:36.400 ,5,0,3.,1.2,0.,1.2,0.,1.2,0.,1.2
1979-03-06 09:02:37.600 ,5,0,2.,1.2,0.,1.2,0.,1.2,0.,1.2
1979-03-06 09:02:38.800 ,5,0,2.,1.2,0.,1.2,0.,1.2,0.,1.2
1979-03-06 09:02:40.000 ,5,0,2.,1.2,0.,1.2,0.,1.2,0.,1.2
1979-03-06 09:02:41.200 ,5,0,3.,1.2,0.,1.2,0.,1.2,0.,1.2
1979-03-06 09:02:42.400 ,5,0,2.,1.2,0.,1.2,0.,1.2,1.,1.2
1979-03-06 09:02:43.600 ,5,0,0.,1.2,0.,1.2,0.,1.2,0.,1.2
1979-03-06 09:02:44.800 ,6,0,3.,1.2,0.,1.2,0.,1.2,0.,1.2
1979-03-06 09:02:46.000 ,6,0,1.,1.2,0.,1.2,0.,1.2,0.,1.2
1979-03-06 09:02:47.200 ,6,0,2.,1.2,0.,1.2,0.,1.2,1.,1.2
1979-03-06 09:02:48.400 ,6,0,1.,1.2,0.,1.2,0.,1.2,0.,1.2
1979-03-06 09:02:49.600 ,6,0,0.,1.2,0.,1.2,0.,1.2,0.,1.2
1979-03-06 09:02:50.800 ,6,0,1.,1.2,0.,1.2,0.,1.2,0.,1.2
1979-03-06 09:02:52.000 ,6,0,2.,1.2,0.,1.2,0.,1.2,0.,1.2
1979-03-06 09:02:53.200 ,6,0,1.,1.2,0.,1.2,0.,1.2,0.,1.2
1979-03-06 09:02:54.400 ,6,0,1.,1.2,0.,1.2,0.,1.2,0.,1.2
1979-03-06 09:02:55.600 ,6,0,3.,1.2,0.,1.2,0.,1.2,0.,1.2
1979-03-06 09:02:56.800 ,6,0,2.,1.2,0.,1.2,0.,1.2,0.,1.2
1979-03-06 09:02:58.000 ,6,0,6.,1.2,0.,1.2,0.,1.2,0.,1.2
1979-03-06 09:02:59.200 ,6,0,2.,1.2,0.,1.2,0.,1.2,0.,1.2
1979-03-06 09:03:00.400 ,6,0,5.,1.2,0.,1.2,0.,1.2,0.,1.2
1979-03-06 09:03:01.600 ,6,0,1.,1.2,0.,1.2,0.,1.2,0.,1.2
1979-03-06 09:03:02.800 ,6,0,2.,1.2,0.,1.2,1.,1.2,0.,1.2
1979-03-06 09:03:04.000 ,6,0,3.,1.2,0.,1.2,0.,1.2,0.,1.2
1979-03-06 09:03:05.200 ,6,0,2.,1.2,0.,1.2,0.,1.2,0.,1.2
1979-03-06 09:03:06.400 ,6,0,4.,1.2,0.,1.2,0.,1.2,0.,1.2
1979-03-06 09:03:07.600 ,6,0,2.,1.2,0.,1.2,0.,1.2,1.,1.2
1979-03-06 09:03:08.800 ,7,0,3.,1.2,0.,1.2,0.,1.2,0.,1.2
1979-03-06 09:03:10.000 ,7,0,1.,1.2,0.,1.2,0.,1.2,0.,1.2
1979-03-06 09:03:11.200 ,7,0,5.,1.2,0.,1.2,0.,1.2,0.,1.2
1979-03-06 09:03:12.400 ,7,0,3.,1.2,0.,1.2,0.,1.2,0.,1.2
1979-03-06 09:03:13.600 ,7,0,2.,1.2,0.,1.2,1.,1.2,1.,1.2
1979-03-06 09:03:14.800 ,7,0,2.,1.2,0.,1.2,6.,1.2,0.,1.2
1979-03-06 09:03:16.000 ,7,0,0.,1.2,0.,1.2,6.,1.2,0.,1.2
1979-03-06 09:03:17.200 ,7,0,0.,1.2,0.,1.2,2.,1.2,0.,1.2
1979-03-06 09:03:18.400 ,7,0,0.,1.2,0.,1.2,6.,1.2,0.,1.2
1979-03-06 09:03:19.600 ,7,0,0.,1.2,0.,1.2,1.,1.2,0.,1.2
1979-03-06 09:03:20.800 ,7,0,0.,1.2,0.,1.2,5.,1.2,0.,1.2
1979-03-06 09:03:22.000 ,7,0,0.,1.2,0.,1.2,12.,1.2,0.,1.2
1979-03-06 09:03:23.200 ,7,0,0.,1.2,0.,1.2,4.,1.2,0.,1.2
1979-03-06 09:03:24.400 ,7,0,0.,1.2,0.,1.2,8.,1.2,0.,1.2
1979-03-06 09:03:25.600 ,7,0,0.,1.2,0.,1.2,6.,1.2,0.,1.2
1979-03-06 09:03:26.800 ,7,0,0.,1.2,0.,1.2,6.,1.2,0.,1.2
1979-03-06 09:03:28.000 ,7,0,0.,1.2,0.,1.2,7.,1.2,0.,1.2
1979-03-06 09:03:29.200 ,7,0,0.,1.2,0.,1.2,3.,1.2,0.,1.2
1979-03-06 09:03:30.400 ,7,0,0.,1.2,0.,1.2,9.,1.2,0.,1.2
1979-03-06 09:03:31.600 ,7,0,0.,1.2,0.,1.2,3.,1.2,0.,1.2
1979-03-06 09:03:32.800 ,7,0,1.,1.2,0.,1.2,9.,1.2,0.,1.2
1979-03-06 09:03:34.000 ,7,0,0.,1.2,0.,1.2,5.,1.2,0.,1.2
1979-03-06 09:03:35.200 ,7,0,1.,1.2,0.,1.2,6.,1.2,0.,1.2
1979-03-06 09:03:36.400 ,7,0,0.,1.2,0.,1.2,8.,1.2,0.,1.2
1979-03-06 09:03:37.600 ,7,0,0.,1.2,0.,1.2,6.,1.2,0.,1.2
1979-03-06 09:03:38.800 ,7,0,0.,1.2,0.,1.2,4.,1.2,0.,1.2
1979-03-06 09:03:40.000 ,7,0,0.,1.2,0.,1.2,4.,1.2,0.,1.2
1979-03-06 09:03:41.200 ,7,0,0.,1.2,0.,1.2,5.,1.2,0.,1.2
1979-03-06 09:03:42.400 ,7,0,0.,1.2,0.,1.2,4.,1.2,0.,1.2
1979-03-06 09:03:43.600 ,7,0,0.,1.2,0.,1.2,6.,1.2,0.,1.2
1979-03-06 09:03:44.800 ,7,0,0.,1.2,0.,1.2,7.,1.2,0.,1.2
1979-03-06 09:03:46.000 ,7,0,0.,1.2,0.,1.2,3.,1.2,0.,1.2
1979-03-06 09:03:47.200 ,7,0,0.,1.2,0.,1.2,4.,1.2,0.,1.2
1979-03-06 09:03:48.400 ,7,0,0.,1.2,0.,1.2,10.,1.2,0.,1.2
1979-03-06 09:03:49.600 ,7,0,0.,1.2,0.,1.2,9.,1.2,0.,1.2
1979-03-06 09:03:50.800 ,7,0,0.,1.2,0.,1.2,4.,1.2,0.,1.2
1979-03-06 09:03:52.000 ,7,0,0.,1.2,0.,1.2,4.,1.2,0.,1.2
1979-03-06 09:03:53.200 ,7,0,0.,1.2,0.,1.2,10.,1.2,0.,1.2
1979-03-06 09:03:54.400 ,7,0,0.,1.2,0.,1.2,3.,1.2,0.,1.2
1979-03-06 09:03:55.600 ,7,0,0.,1.2,0.,1.2,8.,1.2,0.,1.2
1979-03-06 09:03:56.800 ,6,0,0.,1.2,0.,1.2,4.,1.2,0.,1.2
1979-03-06 09:03:58.000 ,6,0,1.,1.2,0.,1.2,5.,1.2,0.,1.2
1979-03-06 09:03:59.200 ,6,0,1.,1.2,0.,1.2,8.,1.2,0.,1.2
1979-03-06 09:04:00.400 ,6,0,0.,1.2,0.,1.2,6.,1.2,0.,1.2
1979-03-06 09:04:01.600 ,6,0,0.,1.2,0.,1.2,7.,1.2,0.,1.2
1979-03-06 09:04:02.800 ,6,0,0.,1.2,0.,1.2,3.,1.2,0.,1.2
1979-03-06 09:04:04.000 ,6,0,3.,1.2,0.,1.2,1.,1.2,0.,1.2
1979-03-06 09:04:05.200 ,6,0,3.,1.2,0.,1.2,0.,1.2,0.,1.2
1979-03-06 09:04:06.400 ,6,0,2.,1.2,0.,1.2,0.,1.2,1.,1.2
1979-03-06 09:04:07.600 ,6,0,1.,1.2,0.,1.2,0.,1.2,0.,1.2
1979-03-06 09:04:08.800 ,6,0,2.,1.2,0.,1.2,0.,1.2,0.,1.2
1979-03-06 09:04:10.000 ,6,0,1.,1.2,0.,1.2,0.,1.2,0.,1.2
1979-03-06 09:04:11.200 ,6,0,3.,1.2,0.,1.2,0.,1.2,0.,1.2
1979-03-06 09:04:12.400 ,6,0,0.,1.2,0.,1.2,0.,1.2,0.,1.2
1979-03-06 09:04:13.600 ,6,0,4.,1.2,0.,1.2,0.,1.2,0.,1.2
1979-03-06 09:04:14.800 ,6,0,2.,1.2,0.,1.2,0.,1.2,0.,1.2
1979-03-06 09:04:16.000 ,6,0,3.,1.2,0.,1.2,0.,1.2,0.,1.2
1979-03-06 09:04:17.200 ,6,0,2.,1.2,0.,1.2,0.,1.2,1.,1.2
1979-03-06 09:04:18.400 ,6,0,2.,1.2,0.,1.2,0.,1.2,0.,1.2
1979-03-06 09:04:19.600 ,6,0,4.,1.2,0.,1.2,0.,1.2,0.,1.2
1979-03-06 09:04:20.800 ,5,0,0.,1.2,0.,1.2,0.,1.2,1.,1.2
1979-03-06 09:04:22.000 ,5,0,2.,1.2,0.,1.2,0.,1.2,0.,1.2
1979-03-06 09:04:23.200 ,5,0,3.,1.2,0.,1.2,0.,1.2,0.,1.2
1979-03-06 09:04:24.400 ,5,0,2.,1.2,0.,1.2,0.,1.2,0.,1.2
1979-03-06 09:04:25.600 ,5,0,1.,1.2,0.,1.2,0.,1.2,0.,1.2
1979-03-06 09:04:26.800 ,5,0,,0,,0,,0,,0
1979-03-06 09:04:28.000 ,5,0,1.,1.2,0.,1.2,0.,1.2,0.,1.2
1979-03-06 09:04:29.200 ,5,0,2.,1.2,0.,1.2,0.,1.2,0.,1.2
1979-03-06 09:04:30.400 ,5,0,4.,1.2,0.,1.2,0.,1.2,0.,1.2
1979-03-06 09:04:31.600 ,5,0,3.,1.2,0.,1.2,0.,1.2,0.,1.2
1979-03-06 09:04:32.800 ,5,0,2.,1.2,0.,1.2,0.,1.2,0.,1.2
1979-03-06 09:04:34.000 ,5,0,1.,1.2,0.,1.2,0.,1.2,0.,1.2
1979-03-06 09:04:35.200 ,5,0,2.,1.2,0.,1.2,0.,1.2,0.,1.2
1979-03-06 09:04:36.400 ,5,0,4.,1.2,0.,1.2,0.,1.2,0.,1.2
1979-03-06 09:04:37.600 ,5,0,3.,1.2,0.,1.2,0.,1.2,0.,1.2
1979-03-06 09:04:38.800 ,5,0,3.,1.2,0.,1.2,0.,1.2,0.,1.2
1979-03-06 09:04:40.000 ,5,0,1.,1.2,0.,1.2,0.,1.2,0.,1.2
1979-03-06 09:04:41.200 ,5,0,0.,1.2,0.,1.2,0.,1.2,0.,1.2
1979-03-06 09:04:42.400 ,5,0,1.,1.2,0.,1.2,0.,1.2,0.,1.2
1979-03-06 09:04:43.600 ,5,0,9.,1.2,0.,1.2,1.,1.2,1.,1.2
1979-03-06 09:04:44.800 ,4,0,5.,1.2,0.,1.2,0.,1.2,0.,1.2
1979-03-06 09:04:46.000 ,4,0,3.,1.2,0.,1.2,0.,1.2,0.,1.2
1979-03-06 09:04:47.200 ,4,0,0.,1.2,0.,1.2,0.,1.2,0.,1.2
1979-03-06 09:04:48.400 ,4,0,2.,1.2,0.,1.2,0.,1.2,0.,1.2
1979-03-06 09:04:49.600 ,4,0,2.,1.2,0.,1.2,0.,1.2,0.,1.2
1979-03-06 09:04:50.800 ,4,0,1.,1.2,0.,1.2,0.,1.2,0.,1.2
1979-03-06 09:04:52.000 ,4,0,7.,1.2,0.,1.2,0.,1.2,0.,1.2
1979-03-06 09:04:53.200 ,4,0,3.,1.2,0.,1.2,0.,1.2,1.,1.2
1979-03-06 09:04:54.400 ,4,0,2.,1.2,0.,1.2,0.,1.2,0.,1.2
1979-03-06 09:04:55.600 ,4,0,2.,1.2,0.,1.2,0.,1.2,0.,1.2
1979-03-06 09:04:56.800 ,4,0,3.,1.2,0.,1.2,0.,1.2,0.,1.2
1979-03-06 09:04:58.000 ,4,0,3.,1.2,0.,1.2,0.,1.2,0.,1.2
1979-03-06 09:04:59.200 ,4,0,2.,1.2,0.,1.2,0.,1.2,0.,1.2
1979-03-06 09:05:00.400 ,4,0,2.,1.2,0.,1.2,0.,1.2,0.,1.2
1979-03-06 09:05:01.600 ,4,0,4.,1.2,0.,1.2,0.,1.2,0.,1.2
1979-03-06 09:05:02.800 ,4,0,0.,1.2,0.,1.2,0.,1.2,1.,1.2
1979-03-06 09:05:04.000 ,4,0,2.,1.2,0.,1.2,0.,1.2,0.,1.2
1979-03-06 09:05:05.200 ,4,0,2.,1.2,0.,1.2,0.,1.2,0.,1.2
1979-03-06 09:05:06.400 ,4,0,1.,1.2,0.,1.2,0.,1.2,0.,1.2
1979-03-06 09:05:07.600 ,4,0,0.,1.2,0.,1.2,0.,1.2,0.,1.2
1979-03-06 09:05:08.800 ,3,0,4.,1.2,0.,1.2,0.,1.2,0.,1.2
1979-03-06 09:05:10.000 ,3,0,2.,1.2,0.,1.2,0.,1.2,0.,1.2
1979-03-06 09:05:11.200 ,3,0,2.,1.2,0.,1.2,1.,1.2,0.,1.2
1979-03-06 09:05:12.400 ,3,0,4.,1.2,0.,1.2,0.,1.2,0.,1.2
1979-03-06 09:05:13.600 ,3,0,6.,1.2,0.,1.2,0.,1.2,0.,1.2
1979-03-06 09:05:14.800 ,3,0,2.,1.2,0.,1.2,0.,1.2,1.,1.2
1979-03-06 09:05:16.000 ,3,0,0.,1.2,0.,1.2,1.,1.2,0.,1.2
1979-03-06 09:05:17.200 ,3,0,3.,1.2,0.,1.2,0.,1.2,0.,1.2
1979-03-06 09:05:18.400 ,3,0,2.,1.2,0.,1.2,0.,1.2,0.,1.2
1979-03-06 09:05:19.600 ,3,0,5.,1.2,0.,1.2,0.,1.2,0.,1.2
1979-03-06 09:05:20.800 ,3,0,2.,1.2,0.,1.2,0.,1.2,0.,1.2
1979-03-06 09:05:22.000 ,3,0,3.,1.2,0.,1.2,0.,1.2,1.,1.2
1979-03-06 09:05:23.200 ,3,0,3.,1.2,0.,1.2,0.,1.2,0.,1.2
1979-03-06 09:05:24.400 ,3,0,3.,1.2,0.,1.2,0.,1.2,0.,1.2
1979-03-06 09:05:25.600 ,3,0,5.,1.2,0.,1.2,0.,1.2,0.,1.2
1979-03-06 09:05:26.800 ,3,0,1.,1.2,0.,1.2,0.,1.2,0.,1.2
1979-03-06 09:05:28.000 ,3,0,3.,1.2,0.,1.2,0.,1.2,0.,1.2
1979-03-06 09:05:29.200 ,3,0,1.,1.2,0.,1.2,0.,1.2,0.,1.2
1979-03-06 09:05:30.400 ,3,0,0.,1.2,0.,1.2,0.,1.2,0.,1.2
1979-03-06 09:05:31.600 ,3,0,4.,1.2,0.,1.2,0.,1.2,0.,1.2
1979-03-06 09:05:32.800 ,2,0,3.,1.2,0.,1.2,0.,1.2,0.,1.2
1979-03-06 09:05:34.000 ,2,0,3.,1.2,0.,1.2,0.,1.2,0.,1.2
1979-03-06 09:05:35.200 ,2,0,5.,1.2,0.,1.2,0.,1.2,0.,1.2
1979-03-06 09:05:36.400 ,2,0,2.,1.2,0.,1.2,0.,1.2,0.,1.2
1979-03-06 09:05:37.600 ,2,0,0.,1.2,0.,1.2,0.,1.2,0.,1.2
1979-03-06 09:05:38.800 ,2,0,4.,1.2,0.,1.2,0.,1.2,0.,1.2
1979-03-06 09:05:40.000 ,2,0,0.,1.2,0.,1.2,0.,1.2,0.,1.2
1979-03-06 09:05:41.200 ,2,0,2.,1.2,0.,1.2,0.,1.2,1.,1.2
1979-03-06 09:05:42.400 ,2,0,3.,1.2,0.,1.2,0.,1.2,0.,1.2
1979-03-06 09:05:43.600 ,2,0,6.,1.2,0.,1.2,0.,1.2,1.,1.2
1979-03-06 09:05:44.800 ,2,0,3.,1.2,0.,1.2,0.,1.2,0.,1.2
1979-03-06 09:05:46.000 ,2,0,1.,1.2,0.,1.2,1.,1.2,0.,1.2
1979-03-06 09:05:47.200 ,2,0,1.,1.2,0.,1.2,0.,1.2,0.,1.2
1979-03-06 09:05:48.400 ,2,0,2.,1.2,0.,1.2,0.,1.2,0.,1.2
1979-03-06 09:05:49.600 ,2,0,1.,1.2,0.,1.2,0.,1.2,0.,1.2
1979-03-06 09:05:50.800 ,2,0,0.,1.2,0.,1.2,1.,1.2,0.,1.2
1979-03-06 09:05:52.000 ,2,0,6.,1.2,0.,1.2,0.,1.2,0.,1.2
1979-03-06 09:05:53.200 ,2,0,2.,1.2,0.,1.2,0.,1.2,0.,1.2
1979-03-06 09:05:54.400 ,2,0,0.,1.2,0.,1.2,0.,1.2,0.,1.2
1979-03-06 09:05:55.600 ,2,0,6.,1.2,0.,1.2,0.,1.2,0.,1.2
1979-03-06 09:05:56.800 ,1,0,3.,1.2,0.,1.2,0.,1.2,0.,1.2
1979-03-06 09:05:58.000 ,1,0,0.,1.2,0.,1.2,0.,1.2,0.,1.2
1979-03-06 09:05:59.200 ,1,0,5.,1.2,0.,1.2,0.,1.2,0.,1.2
1979-03-06 09:06:00.400 ,1,0,1.,1.2,0.,1.2,0.,1.2,0.,1.2
1979-03-06 09:06:01.600 ,1,0,0.,1.2,0.,1.2,0.,1.2,0.,1.2
1979-03-06 09:06:02.800 ,1,0,1.,1.2,0.,1.2,0.,1.2,0.,1.2
1979-03-06 09:06:04.000 ,1,0,0.,1.2,0.,1.2,0.,1.2,0.,1.2
1979-03-06 09:06:05.200 ,1,0,3.,1.2,0.,1.2,0.,1.2,0.,1.2
1979-03-06 09:06:06.400 ,1,0,2.,1.2,0.,1.2,1.,1.2,0.,1.2
1979-03-06 09:06:07.600 ,1,0,4.,1.2,0.,1.2,0.,1.2,0.,1.2
1979-03-06 09:06:08.800 ,1,0,4.,1.2,0.,1.2,0.,1.2,0.,1.2
1979-03-06 09:06:10.000 ,1,0,0.,1.2,0.,1.2,0.,1.2,0.,1.2
1979-03-06 09:06:11.200 ,1,0,2.,1.2,0.,1.2,0.,1.2,0.,1.2
1979-03-06 09:06:12.400 ,1,0,3.,1.2,0.,1.2,0.,1.2,0.,1.2
1979-03-06 09:06:13.600 ,1,0,1.,1.2,0.,1.2,0.,1.2,0.,1.2
1979-03-06 09:06:14.800 ,1,0,3.,1.2,0.,1.2,0.,1.2,1.,1.2
1979-03-06 09:06:16.000 ,1,0,3.,1.2,0.,1.2,0.,1.2,0.,1.2
1979-03-06 09:06:17.200 ,1,0,1.,1.2,0.,1.2,0.,1.2,0.,1.2
1979-03-06 09:06:18.400 ,1,0,3.,1.2,0.,1.2,0.,1.2,0.,1.2
1979-03-06 09:06:19.600 ,1,0,3.,1.2,0.,1.2,0.,1.2,0.,1.2
1979-03-06 09:06:20.800 ,0,0,3.,1.2,0.,1.2,1.,1.2,0.,1.2
1979-03-06 09:06:22.000 ,0,0,2.,1.2,0.,1.2,0.,1.2,0.,1.2
1979-03-06 09:06:23.200 ,0,0,2.,1.2,0.,1.2,0.,1.2,0.,1.2
1979-03-06 09:06:24.400 ,0,0,4.,1.2,0.,1.2,0.,1.2,0.,1.2
1979-03-06 09:06:25.600 ,0,0,4.,1.2,0.,1.2,0.,1.2,0.,1.2
1979-03-06 09:06:26.800 ,0,0,3.,1.2,0.,1.2,0.,1.2,0.,1.2
1979-03-06 09:06:28.000 ,0,0,2.,1.2,0.,1.2,0.,1.2,0.,1.2
1979-03-06 09:06:29.200 ,0,0,1.,1.2,0.,1.2,0.,1.2,0.,1.2
1979-03-06 09:06:30.400 ,0,0,4.,1.2,0.,1.2,0.,1.2,0.,1.2
1979-03-06 09:06:31.600 ,0,0,1.,1.2,0.,1.2,0.,1.2,0.,1.2
1979-03-06 09:06:32.800 ,0,0,2.,1.2,0.,1.2,0.,1.2,0.,1.2
1979-03-06 09:06:34.000 ,0,0,4.,1.2,0.,1.2,1.,1.2,0.,1.2
1979-03-06 09:06:35.200 ,0,0,3.,1.2,0.,1.2,0.,1.2,0.,1.2
1979-03-06 09:06:36.400 ,0,0,5.,1.2,0.,1.2,0.,1.2,0.,1.2
1979-03-06 09:06:37.600 ,0,0,0.,1.2,0.,1.2,0.,1.2,0.,1.2
1979-03-06 09:06:38.800 ,0,0,3.,1.2,0.,1.2,0.,1.2,0.,1.2
1979-03-06 09:06:40.000 ,0,0,2.,1.2,0.,1.2,0.,1.2,0.,1.2
1979-03-06 09:06:41.200 ,0,0,5.,1.2,0.,1.2,0.,1.2,0.,1.2
1979-03-06 09:06:42.400 ,0,0,2.,1.2,0.,1.2,0.,1.2,0.,1.2
1979-03-06 09:06:43.600 ,0,0,5.,1.2,0.,1.2,0.,1.2,0.,1.2
1979-03-06 09:06:44.800 ,0,0,3.,1.2,0.,1.2,0.,1.2,0.,1.2
1979-03-06 09:06:46.000 ,0,0,2.,1.2,0.,1.2,0.,1.2,0.,1.2
1979-03-06 09:06:47.200 ,0,0,2.,1.2,0.,1.2,0.,1.2,0.,1.2
1979-03-06 09:06:48.400 ,0,0,2.,1.2,0.,1.2,0.,1.2,0.,1.2
1979-03-06 09:06:49.600 ,0,0,1.,1.2,0.,1.2,0.,1.2,0.,1.2
1979-03-06 09:06:50.800 ,0,0,4.,1.2,0.,1.2,0.,1.2,0.,1.2
1979-03-06 09:06:52.000 ,0,0,2.,1.2,0.,1.2,0.,1.2,0.,1.2
1979-03-06 09:06:53.200 ,0,0,3.,1.2,0.,1.2,0.,1.2,0.,1.2
1979-03-06 09:06:54.400 ,0,0,0.,1.2,0.,1.2,0.,1.2,0.,1.2
1979-03-06 09:06:55.600 ,0,0,0.,1.2,0.,1.2,0.,1.2,0.,1.2
1979-03-06 09:06:56.800 ,0,0,5.,1.2,0.,1.2,0.,1.2,0.,1.2
1979-03-06 09:06:58.000 ,0,0,4.,1.2,0.,1.2,0.,1.2,0.,1.2
1979-03-06 09:06:59.200 ,0,0,1.,1.2,0.,1.2,0.,1.2,0.,1.2
1979-03-06 09:07:00.400 ,0,0,1.,1.2,0.,1.2,0.,1.2,0.,1.2
1979-03-06 09:07:01.600 ,0,0,1.,1.2,0.,1.2,0.,1.2,0.,1.2
1979-03-06 09:07:02.800 ,0,0,1.,1.2,0.,1.2,0.,1.2,0.,1.2
1979-03-06 09:07:04.000 ,0,0,2.,1.2,0.,1.2,0.,1.2,0.,1.2
1979-03-06 09:07:05.200 ,0,0,3.,1.2,0.,1.2,0.,1.2,1.,1.2
1979-03-06 09:07:06.400 ,0,0,1.,1.2,0.,1.2,0.,1.2,0.,1.2
1979-03-06 09:07:07.600 ,0,0,0.,1.2,0.,1.2,0.,1.2,0.,1.2
1979-03-06 09:07:08.800 ,1,0,2.,1.2,0.,1.2,0.,1.2,0.,1.2
1979-03-06 09:07:10.000 ,1,0,4.,1.2,0.,1.2,0.,1.2,0.,1.2
1979-03-06 09:07:11.200 ,1,0,3.,1.2,0.,1.2,0.,1.2,0.,1.2
1979-03-06 09:07:12.400 ,1,0,1.,1.2,0.,1.2,0.,1.2,0.,1.2
1979-03-06 09:07:13.600 ,1,0,0.,1.2,0.,1.2,0.,1.2,0.,1.2
1979-03-06 09:07:14.800 ,1,0,4.,1.2,0.,1.2,0.,1.2,0.,1.2
1979-03-06 09:07:16.000 ,1,0,2.,1.2,0.,1.2,0.,1.2,0.,1.2
1979-03-06 09:07:17.200 ,1,0,3.,1.2,0.,1.2,0.,1.2,0.,1.2
1979-03-06 09:07:18.400 ,1,0,2.,1.2,0.,1.2,0.,1.2,0.,1.2
1979-03-06 09:07:19.600 ,1,0,4.,1.2,0.,1.2,0.,1.2,0.,1.2
1979-03-06 09:07:20.800 ,1,0,2.,1.2,0.,1.2,0.,1.2,1.,1.2
1979-03-06 09:07:22.000 ,1,0,0.,1.2,0.,1.2,0.,1.2,0.,1.2
1979-03-06 09:07:23.200 ,1,0,3.,1.2,0.,1.2,0.,1.2,0.,1.2
1979-03-06 09:07:24.400 ,1,0,0.,1.2,0.,1.2,0.,1.2,0.,1.2
1979-03-06 09:07:25.600 ,1,0,3.,1.2,0.,1.2,0.,1.2,0.,1.2
1979-03-06 09:07:26.800 ,1,0,1.,1.2,0.,1.2,0.,1.2,2.,1.2
1979-03-06 09:07:28.000 ,1,0,2.,1.2,0.,1.2,0.,1.2,0.,1.2
1979-03-06 09:07:29.200 ,1,0,5.,1.2,0.,1.2,0.,1.2,0.,1.2
1979-03-06 09:07:30.400 ,1,0,5.,1.2,0.,1.2,0.,1.2,0.,1.2
1979-03-06 09:07:31.600 ,1,0,5.,1.2,0.,1.2,0.,1.2,0.,1.2
1979-03-06 09:07:32.800 ,2,0,0.,1.2,0.,1.2,0.,1.2,1.,1.2
1979-03-06 09:07:34.000 ,2,0,5.,1.2,0.,1.2,0.,1.2,0.,1.2
1979-03-06 09:07:35.200 ,2,0,2.,1.2,0.,1.2,0.,1.2,0.,1.2
1979-03-06 09:07:36.400 ,2,0,1.,1.2,0.,1.2,0.,1.2,0.,1.2
1979-03-06 09:07:37.600 ,2,0,0.,1.2,0.,1.2,0.,1.2,0.,1.2
1979-03-06 09:07:38.800 ,2,0,0.,1.2,0.,1.2,0.,1.2,0.,1.2
1979-03-06 09:07:40.000 ,2,0,2.,1.2,0.,1.2,1.,1.2,0.,1.2
1979-03-06 09:07:41.200 ,2,0,2.,1.2,0.,1.2,0.,1.2,0.,1.2
1979-03-06 09:07:42.400 ,2,0,6.,1.2,0.,1.2,0.,1.2,0.,1.2
1979-03-06 09:07:43.600 ,2,0,2.,1.2,0.,1.2,0.,1.2,0.,1.2
1979-03-06 09:07:44.800 ,2,0,2.,1.2,0.,1.2,0.,1.2,0.,1.2
1979-03-06 09:07:46.000 ,2,0,3.,1.2,0.,1.2,0.,1.2,0.,1.2
1979-03-06 09:07:47.200 ,2,0,0.,1.2,0.,1.2,0.,1.2,0.,1.2
1979-03-06 09:07:48.400 ,2,0,6.,1.2,0.,1.2,0.,1.2,0.,1.2
1979-03-06 09:07:49.600 ,2,0,3.,1.2,0.,1.2,0.,1.2,0.,1.2
1979-03-06 09:07:50.800 ,2,0,2.,1.2,0.,1.2,0.,1.2,0.,1.2
1979-03-06 09:07:52.000 ,2,0,1.,1.2,0.,1.2,0.,1.2,0.,1.2
1979-03-06 09:07:53.200 ,2,0,1.,1.2,0.,1.2,0.,1.2,0.,1.2
1979-03-06 09:07:54.400 ,2,0,4.,1.2,0.,1.2,0.,1.2,0.,1.2
1979-03-06 09:07:55.600 ,2,0,3.,1.2,0.,1.2,0.,1.2,0.,1.2
1979-03-06 09:07:56.800 ,3,0,2.,1.2,0.,1.2,0.,1.2,0.,1.2
1979-03-06 09:07:58.000 ,3,0,0.,1.2,0.,1.2,0.,1.2,0.,1.2
1979-03-06 09:07:59.200 ,3,0,0.,1.2,0.,1.2,0.,1.2,0.,1.2
1979-03-06 09:08:00.400 ,3,0,4.,1.2,0.,1.2,0.,1.2,0.,1.2
1979-03-06 09:08:01.600 ,3,0,2.,1.2,0.,1.2,0.,1.2,0.,1.2
1979-03-06 09:08:02.800 ,3,0,5.,1.2,0.,1.2,0.,1.2,0.,1.2
1979-03-06 09:08:04.000 ,3,0,4.,1.2,0.,1.2,0.,1.2,0.,1.2
1979-03-06 09:08:05.200 ,3,0,1.,1.2,0.,1.2,0.,1.2,0.,1.2
1979-03-06 09:08:06.400 ,3,0,2.,1.2,0.,1.2,0.,1.2,0.,1.2
1979-03-06 09:08:07.600 ,3,0,4.,1.2,0.,1.2,0.,1.2,0.,1.2
1979-03-06 09:08:08.800 ,3,0,3.,1.2,0.,1.2,0.,1.2,0.,1.2
1979-03-06 09:08:10.000 ,3,0,2.,1.2,0.,1.2,0.,1.2,0.,1.2
1979-03-06 09:08:11.200 ,3,0,3.,1.2,0.,1.2,0.,1.2,0.,1.2
1979-03-06 09:08:12.400 ,3,0,2.,1.2,0.,1.2,0.,1.2,0.,1.2
1979-03-06 09:08:13.600 ,3,0,0.,1.2,0.,1.2,0.,1.2,0.,1.2
1979-03-06 09:08:14.800 ,3,0,4.,1.2,0.,1.2,0.,1.2,0.,1.2
1979-03-06 09:08:16.000 ,3,0,2.,1.2,0.,1.2,0.,1.2,0.,1.2
1979-03-06 09:08:17.200 ,3,0,4.,1.2,0.,1.2,0.,1.2,0.,1.2
1979-03-06 09:08:18.400 ,3,0,1.,1.2,0.,1.2,0.,1.2,1.,1.2
1979-03-06 09:08:19.600 ,3,0,4.,1.2,0.,1.2,0.,1.2,0.,1.2
1979-03-06 09:08:20.800 ,4,0,3.,1.2,0.,1.2,1.,1.2,0.,1.2
1979-03-06 09:08:22.000 ,4,0,0.,1.2,0.,1.2,1.,1.2,0.,1.2
1979-03-06 09:08:23.200 ,4,0,2.,1.2,0.,1.2,0.,1.2,0.,1.2
1979-03-06 09:08:24.400 ,4,0,4.,1.2,0.,1.2,0.,1.2,0.,1.2
1979-03-06 09:08:25.600 ,4,0,4.,1.2,0.,1.2,0.,1.2,0.,1.2
1979-03-06 09:08:26.800 ,4,0,2.,1.2,0.,1.2,0.,1.2,0.,1.2
1979-03-06 09:08:28.000 ,4,0,1.,1.2,0.,1.2,0.,1.2,1.,1.2
1979-03-06 09:08:29.200 ,4,0,3.,1.2,0.,1.2,0.,1.2,0.,1.2
1979-03-06 09:08:30.400 ,4,0,6.,1.2,0.,1.2,0.,1.2,0.,1.2
1979-03-06 09:08:31.600 ,4,0,3.,1.2,0.,1.2,0.,1.2,0.,1.2
1979-03-06 09:08:32.800 ,4,0,1.,1.2,0.,1.2,0.,1.2,2.,1.2
1979-03-06 09:08:34.000 ,4,0,3.,1.2,0.,1.2,0.,1.2,1.,1.2